GW6564 Weather Reports


Display with metric or nautical units.
time (UTC)temp
F
wind
direction
speed
MPH
gust
MPH
rain 1hr
in
rain 24hr
in
rain mn
in
humidity
%
barometer
mb
20260506182602 66 261 2.0 9.0 0.00 0.00 0.00 77 1007.8
20260506182058 65 246 5.0 8.0 0.00 0.00 0.00 79 1007.7
20260506181556 65 236 6.0 8.0 0.00 0.00 0.00 80 1007.8
20260506181053 66 221 5.0 13.0 0.00 0.00 0.00 78 1007.7
20260506180549 66 293 6.0 8.0 0.00 0.00 0.00 75 1007.6
20260506180046 67 212 5.0 8.0 0.00 0.00 0.00 74 1007.8
20260506175542 67 223 6.0 9.0 0.00 0.00 0.00 72 1007.8
20260506175039 67 287 2.0 21.0 0.00 0.00 0.00 72 1008.0
20260506174538 67 162 5.0 18.0 0.00 0.00 0.00 72 1008.0
20260506174033 67 242 5.0 9.0 0.00 0.00 0.00 72 1008.0
20260506173531 67 188 7.0 13.0 0.00 0.00 0.00 73 1008.0
20260506173028 67 234 8.0 14.0 0.00 0.00 0.00 72 1008.0
20260506172526 67 237 5.0 7.0 0.00 0.00 0.00 72 1008.1
20260506172021 67 202 4.0 7.0 0.00 0.00 0.00 72 1008.1
20260506171519 67 213 15.0 18.0 0.00 0.00 0.00 71 1008.2
20260506171017 67 214 5.0 16.0 0.00 0.00 0.00 73 1008.2
20260506170514 67 254 4.0 14.0 0.00 0.00 0.00 73 1008.3
20260506170012 67 208 9.0 18.0 0.00 0.00 0.00 73 1008.2
20260506165510 67 247 3.0 11.0 0.00 0.00 0.00 73 1008.3
20260506165005 67 199 7.0 11.0 0.00 0.00 0.00 72 1008.3
20260506164502 67 181 8.0 14.0 0.00 0.00 0.00 73 1008.2
20260506164000 67 241 3.0 7.0 0.00 0.00 0.00 75 1008.5
20260506163455 67 212 11.0 15.0 0.00 0.00 0.00 72 1008.6
20260506162950 68 193 8.0 11.0 0.00 0.00 0.00 70 1008.6
20260506162448 68 253 5.0 9.0 0.00 0.00 0.00 68 1008.7
20260506161945 69 263 6.0 10.0 0.00 0.00 0.00 67 1008.9
20260506161443 69 263 5.0 14.0 0.00 0.00 0.00 67 1009.2
20260506160940 69 245 4.0 9.0 0.00 0.00 0.00 67 1009.2
20260506160437 69 218 5.0 8.0 0.00 0.00 0.00 66 1009.3
20260506155935 69 218 4.0 8.0 0.00 0.00 0.00 66 1009.4
20260506155432 69 250 4.0 9.0 0.00 0.00 0.00 65 1009.5
20260506153554 69 219 4.0 14.0 0.00 0.00 0.00 65 1009.4
20260506153051 69 204 5.0 10.0 0.00 0.00 0.00 64 1009.2
20260506152548 69 229 6.0 9.0 0.00 0.00 0.00 63 1009.4
20260506152046 69 230 5.0 17.0 0.00 0.00 0.00 61 1009.4
20260506151544 70 236 2.0 3.0 0.00 0.00 0.00 61 1009.4
20260506151041 70 216 6.0 13.0 0.00 0.00 0.00 60 1009.5
20260506150537 70 249 4.0 7.0 0.00 0.00 0.00 60 1009.2
20260506150034 70 201 10.0 15.0 0.00 0.00 0.00 59 1009.1
20260506145531 70 228 10.0 13.0 0.00 0.00 0.00 59 1009.1
20260506145028 70 202 9.0 13.0 0.00 0.00 0.00 59 1009.5
20260506144525 69 228 7.0 11.0 0.00 0.00 0.00 60 1009.5
20260506144022 69 225 4.0 8.0 0.00 0.00 0.00 60 1009.5
20260506143520 69 238 3.0 4.0 0.00 0.00 0.00 61 1009.6
20260506143018 69 266 11.0 11.0 0.00 0.00 0.00 60 1009.6
20260506142515 69 212 4.0 14.0 0.00 0.00 0.00 60 1009.3
20260506142013 69 201 6.0 9.0 0.00 0.00 0.00 60 1009.5
20260506141511 69 201 6.0 14.0 0.00 0.00 0.00 59 1009.4
20260506141009 70 198 16.0 22.0 0.00 0.00 0.00 58 1009.4
20260506140506 70 201 5.0 15.0 0.00 0.00 0.00 58 1009.5
20260506140003 70 252 6.0 14.0 0.00 0.00 0.00 58 1009.4
20260506135500 70 241 4.0 11.0 0.00 0.00 0.00 59 1009.4
20260506134956 69 242 2.0 7.0 0.00 0.00 0.00 60 1009.2
20260506134452 69 253 4.0 9.0 0.00 0.00 0.00 61 1009.1
20260506133949 69 176 9.0 14.0 0.00 0.00 0.00 61 1009.4
20260506133446 69 226 9.0 11.0 0.00 0.00 0.00 61 1009.4
20260506132943 69 223 12.0 15.0 0.00 0.00 0.00 61 1009.2
20260506132440 69 249 8.0 10.0 0.00 0.00 0.00 61 1009.2
20260506131937 69 254 6.0 14.0 0.00 0.00 0.00 61 1009.4
20260506131434 69 205 7.0 9.0 0.00 0.00 0.00 61 1009.4
20260506130931 69 204 7.0 14.0 0.00 0.00 0.00 61 1009.6
20260506130427 69 222 9.0 15.0 0.00 0.00 0.00 61 1009.6
20260506125925 69 236 3.0 16.0 0.00 0.00 0.00 61 1009.6
20260506125423 69 232 9.0 17.0 0.00 0.00 0.00 61 1009.4
20260506124921 69 273 7.0 10.0 0.00 0.00 0.00 61 1009.6
20260506124418 69 268 4.0 8.0 0.00 0.00 0.00 62 1009.6
20260506123916 68 194 4.0 14.0 0.00 0.00 0.00 62 1009.5
20260506123414 68 260 2.0 10.0 0.00 0.00 0.00 63 1009.6
20260506122911 68 217 4.0 10.0 0.00 0.00 0.00 63 1009.6
20260506122408 69 217 9.0 14.0 0.00 0.00 0.00 62 1009.5
20260506121907 68 248 4.0 7.0 0.00 0.00 0.00 65 1009.4
20260506121403 68 206 14.0 22.0 0.00 0.00 0.00 64 1009.4
20260506120900 67 221 6.0 10.0 0.00 0.00 0.00 66 1009.3
20260506120357 66 184 7.0 13.0 0.00 0.00 0.00 67 1009.5
20260506115855 66 193 4.0 8.0 0.00 0.00 0.00 69 1009.6
20260506115353 66 182 7.0 13.0 0.00 0.00 0.00 68 1009.5
20260506114850 66 209 6.0 15.0 0.00 0.00 0.00 68 1009.6
20260506114348 66 236 5.0 10.0 0.00 0.00 0.00 69 1009.5
20260506113847 65 210 5.0 8.0 0.00 0.00 0.00 69 1009.5
20260506113343 65 230 7.0 17.0 0.00 0.00 0.00 69 1009.5
20260506112840 65 202 6.0 14.0 0.00 0.00 0.00 69 1009.4
20260506112337 65 248 6.0 10.0 0.00 0.00 0.00 69 1009.5
20260506111835 65 190 3.0 9.0 0.00 0.00 0.00 69 1009.4
20260506111333 65 206 6.0 11.0 0.00 0.00 0.00 69 1009.5
20260506110830 65 223 4.0 14.0 0.00 0.00 0.00 69 1009.5
20260506110327 65 233 4.0 9.0 0.00 0.00 0.00 70 1009.6
20260506105824 65 209 6.0 15.0 0.00 0.00 0.00 70 1009.5
20260506105320 64 226 13.0 17.0 0.00 0.00 0.00 71 1009.6
20260506104818 64 238 4.0 9.0 0.00 0.00 0.00 71 1009.4
20260506104316 64 209 5.0 11.0 0.00 0.00 0.00 72 1009.4
20260506103813 64 194 3.0 7.0 0.00 0.00 0.00 72 1009.5
20260506103310 64 196 9.0 13.0 0.00 0.00 0.00 72 1009.4
20260506102807 64 216 4.0 9.0 0.00 0.00 0.00 73 1009.5
20260506102306 64 227 8.0 13.0 0.00 0.00 0.00 73 1009.6
20260506101802 64 234 4.0 14.0 0.00 0.00 0.00 73 1009.8
20260506101258 64 203 7.0 9.0 0.00 0.00 0.00 73 1009.8
20260506100757 64 224 5.0 11.0 0.00 0.00 0.00 74 1009.6
20260506100254 64 247 3.0 9.0 0.00 0.00 0.00 74 1009.6
20260506095753 64 209 7.0 11.0 0.00 0.00 0.00 74 1009.6
20260506095249 64 224 3.0 7.0 0.00 0.00 0.00 74 1009.5
20260506094746 64 224 3.0 9.0 0.00 0.00 0.00 74 1009.3
20260506094244 64 262 4.0 6.0 0.00 0.00 0.00 74 1009.5
20260506093742 64 221 6.0 10.0 0.00 0.00 0.00 74 1009.3
20260506093239 64 237 6.0 9.0 0.00 0.00 0.00 74 1009.4
20260506092737 64 198 3.0 9.0 0.00 0.00 0.00 74 1009.5
20260506092235 64 238 4.0 10.0 0.00 0.00 0.00 74 1009.3
20260506091732 64 237 4.0 14.0 0.00 0.00 0.00 74 1009.6
20260506091229 64 213 5.0 10.0 0.00 0.00 0.00 74 1009.5
20260506090727 64 186 4.0 7.0 0.00 0.00 0.00 74 1009.4
20260506090223 64 207 7.0 10.0 0.00 0.00 0.00 74 1009.3
20260506085720 64 229 5.0 9.0 0.00 0.00 0.00 74 1009.3
20260506085217 64 209 12.0 14.0 0.00 0.00 0.00 74 1009.7
20260506084713 65 228 4.0 6.0 0.00 0.00 0.00 74 1009.7
20260506084209 64 224 4.0 9.0 0.00 0.00 0.00 74 1009.6
20260506083707 65 198 3.0 8.0 0.00 0.00 0.00 74 1009.7
20260506083205 65 232 3.0 9.0 0.00 0.00 0.00 74 1009.6
20260506082702 65 221 6.0 9.0 0.00 0.00 0.00 73 1009.6
20260506082202 65 281 6.0 8.0 0.00 0.00 0.00 74 1009.9
20260506081700 65 230 7.0 11.0 0.00 0.00 0.00 73 1009.8
20260506081158 65 249 2.0 9.0 0.00 0.00 0.00 73 1009.9
20260506080655 65 242 5.0 8.0 0.00 0.00 0.00 73 1009.9
20260506080152 65 219 6.0 10.0 0.00 0.00 0.00 73 1009.8
20260506073136 66 228 3.0 11.0 0.00 0.00 0.00 72 1009.6
20260506072632 66 171 5.0 10.0 0.00 0.00 0.00 72 1009.7
20260506072130 66 231 4.0 6.0 0.00 0.00 0.00 72 1009.7
20260506071628 66 212 5.0 9.0 0.00 0.00 0.00 72 1009.7
20260506071125 66 268 4.0 8.0 0.00 0.00 0.00 72 1009.7
20260506070622 66 228 4.0 14.0 0.00 0.00 0.00 72 1009.7
20260506070119 66 221 4.0 11.0 0.00 0.00 0.00 72 1009.9
20260506062056 66 223 2.0 9.0 0.00 0.00 0.00 71 1009.9
20260506061552 66 229 3.0 8.0 0.00 0.00 0.00 71 1009.8
20260506061050 66 235 5.0 9.0 0.00 0.00 0.00 71 1009.9
20260506060548 66 211 6.0 13.0 0.00 0.00 0.00 71 1010.1
20260506051017 68 248 1.0 6.0 0.00 0.00 0.00 69 1010.4
20260506050515 68 236 3.0 11.0 0.00 0.00 0.00 68 1010.4
20260506045005 68 245 6.0 11.0 0.00 0.00 0.00 68 1010.4
20260506044504 68 216 7.0 19.0 0.00 0.00 0.00 68 1010.4
20260506044000 68 227 6.0 15.0 0.00 0.00 0.00 68 1010.5
20260506043457 68 216 4.0 9.0 0.00 0.00 0.00 67 1010.2
20260506042955 68 219 8.0 11.0 0.00 0.00 0.00 67 1010.3
20260506042454 68 220 3.0 8.0 0.00 0.00 0.00 67 1010.4
20260506041951 68 269 4.0 11.0 0.00 0.00 0.00 67 1010.4
20260506041450 68 211 7.0 11.0 0.00 0.00 0.00 66 1010.5
20260506040946 68 200 5.0 10.0 0.00 0.00 0.00 66 1010.3
20260506040444 68 228 10.0 13.0 0.00 0.00 0.00 66 1010.3
20260506035940 68 174 1.0 7.0 0.00 0.00 0.00 65 1010.1
20260506035437 68 194 2.0 16.0 0.00 0.00 0.00 65 1010.2
20260506034934 68 205 7.0 15.0 0.00 0.00 0.00 65 1010.5
20260506034431 68 238 3.0 7.0 0.00 0.00 0.00 65 1010.2
20260506033928 68 258 4.0 9.0 0.00 0.00 0.00 64 1010.4
20260506033426 68 223 1.0 10.0 0.00 0.00 0.00 64 1010.5
20260506032922 68 151 6.0 11.0 0.00 0.00 0.00 64 1010.3
20260506032419 69 226 7.0 11.0 0.00 0.00 0.00 63 1010.3
20260506031916 69 226 5.0 14.0 0.00 0.00 0.00 63 1010.3
20260506031413 69 206 3.0 9.0 0.00 0.00 0.00 62 1010.4
20260506030911 69 231 4.0 8.0 0.00 0.00 0.00 62 1010.4
20260506030409 69 203 10.0 14.0 0.00 0.00 0.00 62 1010.4
20260506025905 69 258 7.0 15.0 0.00 0.00 0.00 62 1010.3
20260506025402 69 240 8.0 11.0 0.00 0.00 0.00 61 1010.4
20260506024859 69 229 7.0 10.0 0.00 0.00 0.00 61 1010.6
20260506024356 69 259 5.0 13.0 0.00 0.00 0.00 61 1010.5
20260506023852 69 193 6.0 11.0 0.00 0.00 0.00 60 1010.7
20260506023349 70 206 7.0 11.0 0.00 0.00 0.00 59 1010.6
20260506022845 70 215 9.0 11.0 0.00 0.00 0.00 59 1010.5
20260506022343 70 214 7.0 11.0 0.00 0.00 0.00 58 1010.4
20260506021841 70 250 7.0 17.0 0.00 0.00 0.00 58 1010.4
20260506021338 70 209 5.0 9.0 0.00 0.00 0.00 57 1010.6
20260506020834 70 251 8.0 11.0 0.00 0.00 0.00 57 1010.4
20260506020332 71 189 4.0 8.0 0.00 0.00 0.00 56 1010.2
20260506015830 71 226 6.0 11.0 0.00 0.00 0.00 56 1010.5
20260506015327 71 203 11.0 15.0 0.00 0.00 0.00 55 1010.3
20260506014824 71 239 4.0 14.0 0.00 0.00 0.00 55 1010.2
20260506014320 71 232 8.0 13.0 0.00 0.00 0.00 54 1010.0
20260506013817 71 213 7.0 9.0 0.00 0.00 0.00 54 1010.0
20260506013314 71 221 7.0 11.0 0.00 0.00 0.00 54 1010.2
20260506012811 71 246 6.0 8.0 0.00 0.00 0.00 54 1010.1
20260506012308 71 235 6.0 11.0 0.00 0.00 0.00 54 1010.1
20260506011805 71 219 3.0 13.0 0.00 0.00 0.00 54 1010.0
20260506011301 71 220 6.0 16.0 0.00 0.00 0.00 54 1009.8
20260506010759 71 223 9.0 14.0 0.00 0.00 0.00 54 1009.9
20260506010257 71 197 6.0 9.0 0.00 0.00 0.00 54 1009.7
20260506005754 71 240 4.0 10.0 0.00 0.00 0.00 54 1009.9
20260506005251 71 236 9.0 14.0 0.00 0.00 0.00 54 1009.9
20260506004746 72 159 2.0 8.0 0.00 0.00 0.00 54 1009.8
20260506004245 72 202 10.0 14.0 0.00 0.00 0.00 54 1009.7
20260506003740 72 225 9.0 15.0 0.00 0.00 0.00 54 1009.6
20260506003237 72 246 2.0 11.0 0.00 0.00 0.00 53 1009.6
20260506002733 72 193 6.0 10.0 0.00 0.00 0.00 53 1009.6
20260506002229 73 261 2.0 9.0 0.00 0.00 0.00 52 1009.5
20260506001725 73 215 4.0 7.0 0.00 0.00 0.00 51 1009.3
20260506001223 74 212 6.0 10.0 0.00 0.00 0.00 50 1009.5
20260506000719 74 193 5.0 8.0 0.00 0.00 0.00 48 1009.5
20260506000219 75 224 4.0 11.0 0.00 0.00 0.00 47 1009.5
20260505235714 75 229 1.0 4.0 0.00 0.00 0.00 46 1009.3
20260505235212 75 193 5.0 7.0 0.00 0.00 0.00 44 1009.3
20260505234708 76 259 2.0 7.0 0.00 0.00 0.00 44 1009.2
20260505234206 76 180 7.0 17.0 0.00 0.00 0.00 43 1009.2
20260505233702 76 235 1.0 13.0 0.00 0.00 0.00 42 1009.1
20260505233200 77 229 4.0 11.0 0.00 0.00 0.00 41 1008.9
20260505232657 77 161 5.0 10.0 0.00 0.00 0.00 40 1009.1
20260505232155 78 230 3.0 11.0 0.00 0.00 0.00 39 1008.9
20260505231651 78 207 2.0 9.0 0.00 0.00 0.00 37 1008.8
20260505231150 79 200 9.0 13.0 0.00 0.00 0.00 36 1008.7
20260505230648 79 238 4.0 7.0 0.00 0.00 0.00 37 1008.9
20260505230144 79 207 8.0 13.0 0.00 0.00 0.00 37 1008.7
20260505225640 79 268 3.0 13.0 0.00 0.00 0.00 37 1008.7
20260505225137 79 244 4.0 14.0 0.00 0.00 0.00 36 1008.8
20260505224633 79 238 8.0 19.0 0.00 0.00 0.00 36 1008.7
20260505224131 80 235 6.0 8.0 0.00 0.00 0.00 36 1008.9
20260505223628 80 221 11.0 13.0 0.00 0.00 0.00 36 1008.8
20260505223124 80 229 5.0 17.0 0.00 0.00 0.00 36 1008.9
20260505222621 80 203 6.0 15.0 0.00 0.00 0.00 36 1008.8
20260505222117 81 238 5.0 11.0 0.00 0.00 0.00 36 1008.9
20260505221614 81 210 13.0 22.0 0.00 0.00 0.00 35 1008.9
20260505221110 81 266 7.0 17.0 0.00 0.00 0.00 35 1008.6
20260505220608 81 192 7.0 14.0 0.00 0.00 0.00 35 1008.5
20260505220106 81 196 7.0 10.0 0.00 0.00 0.00 35 1008.7
20260505215603 81 218 9.0 15.0 0.00 0.00 0.00 35 1008.7
20260505215101 82 226 5.0 15.0 0.00 0.00 0.00 35 1008.7
20260505214559 82 188 7.0 11.0 0.00 0.00 0.00 33 1008.5
20260505214056 82 310 8.0 15.0 0.00 0.00 0.00 33 1008.6
20260505213553 82 225 10.0 16.0 0.00 0.00 0.00 33 1008.5
20260505213049 82 240 4.0 10.0 0.00 0.00 0.00 32 1008.6
20260505212546 83 254 4.0 13.0 0.00 0.00 0.00 32 1008.4
20260505212044 82 285 5.0 17.0 0.00 0.00 0.00 31 1008.6
20260505211540 82 256 10.0 14.0 0.00 0.00 0.00 31 1008.3
20260505211037 83 229 6.0 18.0 0.00 0.00 0.00 31 1008.4
20260505210534 83 239 3.0 14.0 0.00 0.00 0.00 31 1008.3
20260505210031 83 250 7.0 14.0 0.00 0.00 0.00 30 1008.1
20260505205529 83 224 5.0 11.0 0.00 0.00 0.00 30 1008.2
20260505205026 83 214 4.0 16.0 0.00 0.00 0.00 31 1008.2
20260505204524 83 289 10.0 16.0 0.00 0.00 0.00 30 1008.0
20260505204021 84 219 6.0 16.0 0.00 0.00 0.00 30 1008.1
20260505203517 84 271 5.0 14.0 0.00 0.00 0.00 30 1007.8
20260505203014 84 213 7.0 17.0 0.00 0.00 0.00 30 1008.0
20260505202510 84 303 11.0 18.0 0.00 0.00 0.00 30 1007.9
20260505202006 84 272 5.0 10.0 0.00 0.00 0.00 31 1008.1
20260505201504 84 289 6.0 17.0 0.00 0.00 0.00 32 1007.9
20260505201001 84 207 14.0 18.0 0.00 0.00 0.00 32 1008.1
20260505200459 84 179 2.0 11.0 0.00 0.00 0.00 33 1008.2
20260505195954 84 251 6.0 21.0 0.00 0.00 0.00 33 1008.1
20260505195451 84 197 10.0 18.0 0.00 0.00 0.00 32 1008.4
20260505194949 84 253 3.0 18.0 0.00 0.00 0.00 34 1008.1
20260505194446 84 201 12.0 21.0 0.00 0.00 0.00 33 1008.5
20260505193946 83 229 8.0 11.0 0.00 0.00 0.00 35 1008.2
20260505193444 83 184 6.0 16.0 0.00 0.00 0.00 34 1008.5
20260505192941 83 221 14.0 19.0 0.00 0.00 0.00 34 1008.5
20260505192440 83 271 11.0 16.0 0.00 0.00 0.00 33 1008.7
20260505191936 83 216 12.0 19.0 0.00 0.00 0.00 34 1008.5
20260505191435 84 182 12.0 15.0 0.00 0.00 0.00 34 1008.5
20260505190932 84 283 6.0 15.0 0.00 0.00 0.00 35 1008.6
20260505190427 84 229 7.0 13.0 0.00 0.00 0.00 34 1008.6
20260505185922 83 204 6.0 10.0 0.00 0.00 0.00 34 1008.7
20260505185420 84 248 15.0 21.0 0.00 0.00 0.00 34 1008.9
20260505184916 84 197 8.0 9.0 0.00 0.00 0.00 35 1008.9
20260505184413 84 219 4.0 11.0 0.00 0.00 0.00 35 1009.1
20260505183910 83 242 1.0 7.0 0.00 0.00 0.00 36 1009.0
20260505183407 83 223 9.0 22.0 0.00 0.00 0.00 36 1009.1